Location: Unspecified
(54.1780°N, 0.0000°E)
Time: 21:08:34
(UTC+00:00)

Transit 2A - Pass Details

Date: 22 June 2019
Orbit: 594 x 964 km, 66.7° (Epoch: 19 July)

Event Time Altitude Azimuth Distance (km) Brightness Sun altitude
Rises 07:23:11 0° 316° (NW) 3,558 9.1 30.6°
Reaches altitude 10° 07:25:53 10° 321° (NW) 2,568 8.5 31.0°
Maximum altitude 07:31:42 52° 37° (NE) 1,036 7.5 31.8°
Drops below altitude 10° 07:36:55 10° 114° (ESE) 2,316 9.8 32.6°
Sets 07:39:15 0° 119° (ESE) 3,181 10.1 32.9°
